STARLINK-33650, 63321

Orbit data source: Space-Track

STARLINK-33650, 63321 is a payload satellite owned by SpaceX/Seattle (US) in LEO that was launched on Tue, 18 Mar 2025 UTC via an FALCON 9 launch vehicle from the Air Force Eastern Test Range (AFETR). Payload-class satellites include a variety of spacecraft equipped with specific instruments for various scientific and technological missions. These include communications satellites like Starlink; space stations such as the ISS; scientific satellites like the Hubble; Earth observation satellites from companies like Planet Labs, Umbra, and HawkEye 360; GPS; miniature CubeSats for education and research; and military/defense satellites.

Loading next visibility...
Identifier
63321, 2025-057Q
Orbit
LEO
Country
Flag of USUS
Related business
Manufacturer
SpaceX/Seattle
Mission
Operational Commercial Communications
Bus & Motor
STARLINK V2MO, Unknown motor
Mass
575 kg wet, ~530 kg dry
Launch date (UTC)
2025-03-18 (9 months ago)
Launch vehicle
FALCON 9
Launch site
Air Force Eastern Test Range (AFETR)
Object type
Payload
Rocket body
Debris
Shape & HBR
Box + 2 Pan, 17.7 m
Radar Cross Section
36.964 m², Large (>1 m²)

Expand to show TLE details & history
Last TLE update: 17 hours ago

TLE from 17 hours ago
0 STARLINK-33650
1 63321U 25057Q   25347.20719310  .00035895  00000-0  13075-2 0  9996
2 63321  43.0004 159.0403 0001359 278.0459  82.0238 15.27582291 42510
Epoch: 2025-12-13T04:58Z
TLE epoch observation values (Epoch: 2025-12-13T04:58:21.483Z)
Latitude
-0.00006°
Longitude
2.31294°
Altitude
482.688 km
Speed
7.626 km/s
True Right ascension
10h 36m 09s
True Declination
0° 00' 00"
Sunlit
Object was in daylight at epoch
Visualization orbit readout
Latitude
Unknown
Longitude
Unknown
Altitude
Unknown
Speed
Unknown
Apparent Right ascension
Unknown
Apparent Declination
Unknown
Sunlit
N/A
Visualization observer readout
Local Sidereal Time
20:20:49
Azimuth
Unknown
Elevation
Unknown
Doppler factor
Unknown
Orbital elements
Apogee altitude
485.92 km
Perigee altitude
484.055 km
Semi-major axis
6,863.124 km
Eccentricity
0.00014
Inclination
43.0004°
RAAN
159.0403°
Arg. of periapsis
278.0459°
True anomaly
82.03922°
Mean anomaly
82.0238°
Eccentric anomaly
82.03151°
Mean motion
3.81734 °/min
Orbital period
94.31 mins
BSTAR
0.0013075
Loading maneuver chart data...
Computing Atmospheric mass density...
Loading historical data...
Loading historical data...
Loading historical data...
Loading historical data...
Loading historical data...
Loading historical data...
Loading historical data...

Documentation

Showing up to 5 results
|